783  
ASUS45 KBOI 162010  
RWRID  
 
IDAHO REGIONAL WEATHER ROUNDUP  
NATIONAL WEATHER SERVICE BOISE ID  
200 PM MDT THU AUG 16 2018  
 
NOTE: "FAIR" INDICATES FEW OR NO CLOUDS BELOW 12000 FEET  
WITH NO SIGNIFICANT WEATHER AND/OR S TO VISIBILITY
 
 
IDZ012-014-162100-  
SOUTHWEST IDAHO  
 
 
CITY SKY/WX TMP DP RH WIND PRES REMARKS
 
BOISE SUNNY 92 41 17 CALM 30.04F  
CALDWELL SUNNY 93 45 19 E5 30.02S  
MOUNTAIN HOME PTSUNNY 89 45 21 E12 30.07F  

 
 
IDZ016-017-162100-  
SOUTHCENTRAL IDAHO  
 
 
CITY SKY/WX TMP DP RH WIND PRES REMARKS
 
BURLEY CLOUDY 79 51 37 S5 30.17R  
JEROME CLOUDY 83 43 24 CALM 30.17S  
TWIN FALLS CLOUDY 80 50 34 N3 30.18R  

 
 
IDZ019>023-162100-  
SOUTHEAST IDAHO  
 
 
CITY SKY/WX TMP DP RH WIND PRES REMARKS
 
IDAHO FALLS PTSUNNY 81 44 27 SW14 30.21S  
POCATELLO CLOUDY 82 45 27 N5 30.20S  
REXBURG PTSUNNY 84 42 22 SW14 30.21S  

 
 
IDZ006-010-011-018-031-032-162100-  
CENTRAL IDAHO MOUNTAINS  
 
 
CITY SKY/WX TMP DP RH WIND PRES REMARKS
 
MCCALL MOSUNNY 84 35 17 CALM 30.16F  
HAILEY PTSUNNY 75 45 33 E5 30.27R  
STANLEY N/A 83 30 14 VRB3 30.26S  
SALMON MOSUNNY 79 37 22 CALM 30.13F  
CHALLIS MOSUNNY 85 32 15 N3 30.16F  

 
 
IDZ002-004-006-007-026-162100-  
NORTHERN IDAHO  
 
 
CITY SKY/WX TMP DP RH WIND PRES REMARKS
 
LEWISTON MOSUNNY 90 43 19 MISG 29.98F  
LOWELL N/A 87 46 24 CALM 29.99F  
COEUR D'ALENE MOSUNNY 83 48 29 S7 30.05F HAZE  
MULLAN PASS CLOUDY 69 31 24 CALM 30.28S HAZE  

 
 
 
CLICK HERE TO GO TO PREVIOUS BULLETINS.

The Nexlab ID Page Main Text Page